Temp
9 8 8 8 8 8 8 8 8 8 8 8 8 8 7 7 7 7 7 7 7 7 7 7 7 7 7 7 7 7 7 7 7 7 7 7 7 7 7 7 7 7 7 7 7 7 7 7 7 7 7 7 7 7 7 7 7 7 7 8 8 8 8 8 7 7 7 7 7
8 8 8 8 8 8 8 8 8 8 8 8 8 7 7 7 7 7 7 7 7 7 7 7 7 7 7 7 7 7 7 7 7 7 7 7 7 7 7 7 7 7 7 7 7 7 7 7 7 7 7 7 7 7 7 7 7 7 7 7 7 7 7 7 7 7 7 7 7
8 8 8 8 8 8 8 8 8 8 8 8 7 7 7 7 7 7 7 7 7 7 7 7 7 7 6 6 6 6 6 6 6 6 6 6 6 6 6 6 7 7 7 7 7 7 7 7 7 7 7 7 7 7 7 7 7 7 7 7 7 7 7 7 7 7 7 7 7
8 8 8 8 8 8 8 8 8 8 7 7 7 7 7 7 7 7 7 7 7 7 6 6 6 6 6 6 6 6 6 6 6 6 6 6 6 6 6 6 6 6 6 7 7 7 7 7 7 7 7 7 7 7 7 7 7 7 7 7 7 7 7 7 7 7 7 7 7
8 8 8 8 8 8 8 8 7 7 7 7 7 7 7 7 7 7 7 6 6 6 6 6 6 6 6 6 6 6 6 6 6 6 6 6 6 6 6 6 6 6 6 6 6 6 7 7 7 7 7 7 7 7 7 7 7 7 7 7 7 7 7 7 7 7 7 7 7
8 8 8 8 7 7 7 7 7 7 7 7 7 7 7 7 7 6 6 6 6 6 6 6 6 6 6 6 6 6 6 6 6 6 6 6 6 6 6 6 6 6 6 6 6 6 6 6 6 7 7 7 7 7 7 7 7 7 7 7 7 7 7 7 7 7 7 7 7
8 8 8 8 7 7 7 7 7 7 7 7 7 7 7 6 6 6 6 6 6 6 6 6 6 6 6 6 6 6 6 6 6 6 6 6 6 6 6 6 6 6 6 6 6 6 6 6 6 6 6 7 7 7 7 7 7 7 7 7 7 7 7 7 7 7 7 7 7
8 8 8 8 7 7 7 7 7 7 7 7 7 7 6 6 6 6 6 6 6 6 6 6 6 6 6 6 6 6 6 6 6 6 6 6 6 6 6 6 6 6 6 6 6 6 6 6 6 6 6 6 6 6 6 7 7 7 7 7 7 7 7 7 7 7 7 7 7
8 8 8 7 7 7 7 7 7 7 7 7 6 6 6 6 6 6 6 6 6 6 6 6 6 6 6 6 6 6 6 6 6 6 6 6 6 6 6 6 6 6 6 6 6 6 6 6 6 6 6 6 6 6 6 6 6 6 6 7 7 7 7 7 7 7 7 7 7
8 7 7 7 7 7 7 7 7 7 7 6 6 6 6 6 6 6 6 6 6 6 6 6 6 6 6 6 6 6 6 6 6 6 6 6 6 5 5 5 5 5 5 5 6 6 6 6 6 6 6 6 6 6 6 6 6 6 6 6 6 6 6 6 6 6 6 6 7
7 7 7 7 7 7 7 7 7 7 6 6 6 6 6 6 6 6 6 6 6 6 6 6 6 6 6 6 6 6 6 6 6 6 5 5 5 5 5 5 5 5 5 5 5 5 5 5 5 5 5 5 6 6 6 6 6 6 6 6 6 6 6 6 6 6 6 6 6
7 7 7 7 7 7 7 7 7 6 6 6 6 6 6 6 6 6 6 6 6 6 6 6 6 5 5 5 5 5 5 5 5 5 5 5 5 5 5 5 5 5 5 5 5 5 5 5 5 5 5 5 5 5 5 5 5 5 5 5 5 6 6 6 6 6 6 6 6
7 7 7 7 7 7 7 7 6 6 6 6 6 6 6 6 6 6 6 6 6 6 5 5 5 5 5 5 5 5 5 5 5 5 5 5 5 5 5 5 5 5 5 4 4 4 4 4 4 4 4 4 4 4 5 5 5 5 5 5 5 5 5 5 5 5 5 5 5
6 6 6 6 6 7 7 6 6 6 6 6 6 6 6 6 6 6 6 5 5 5 5 5 5 4 4 4 4 4 4 4 4 4 4 4 4 4 4 4 4 4 4 4 4 4 4 4 4 4 4 4 4 4 4 4 4 4 4 4 5 5 5 5 5 5 5 5 5
6 6 6 6 6 6 6 6 6 6 6 6 6 6 6 6 5 5 5 5 5 5 4 4 4 4 4 4 4 4 3 3 3 3 3 3 3 3 3 3 3 3 3 3 3 3 3 3 3 3 3 3 3 4 4 4 4 4 4 4 4 4 4 4 4 4 4 5 5
6 6 6 6 6 6 6 6 6 6 6 6 6 6 5 5 5 5 5 4 4 4 4 4 3 3 3 3 3 3 3 3 3 3 3 3 3 2 2 2 2 2 2 2 2 2 2 2 2 2 2 2 2 3 3 3 3 3 3 4 4 4 4 4 4 4 4 4 4
5 6 6 6 6 6 6 6 6 6 6 6 6 5 5 5 5 4 4 4 4 3 3 3 3 3 3 3 3 3 2 2 2 2 2 2 1 1 1 1 1 1 1 1 1 1 1 1 1 1 1 1 2 2 2 2 2 3 3 3 3 3 3 3 3 4 4 4 4
5 6 6 6 7 7 7 6 6 6 6 6 5 5 5 4 4 4 3 3 3 3 3 3 2 2 2 2 2 2 2 2 1 1 1 0 0 -0 -0 -0 0 0 0 0 0 0 0 0 1 1 1 1 1 1 2 2 2 2 2 2 2 2 3 3 3 3 3 3 3
5 6 6 7 7 7 7 6 6 6 5 5 5 5 4 4 3 3 3 3 3 3 2 2 2 2 2 2 1 1 1 1 1 0 -0 -1 -1 -1 -1 -0 -0 -0 -0 0 0 0 0 0 0 0 0 0 1 1 1 1 2 2 2 2 2 2 2 2 2 3 3 3 3
6 6 6 6 7 7 6 6 6 5 5 5 5 4 4 3 3 3 3 2 2 2 2 2 2 1 1 1 1 0 0 -0 -0 -1 -1 -1 -1 -1 -1 -0 -0 -0 -0 -0 -0 -0 -0 -0 -0 -0 -0 0 0 1 1 1 1 1 1 2 2 2 2 2 2 2 2 3 3
6 6 6 6 6 6 6 6 5 5 5 4 4 4 3 3 3 2 2 2 2 2 2 1 1 1 0 0 -0 -0 -1 -1 -1 -1 -1 -1 -1 -1 -0 0 0 0 0 0 -0 -0 -0 -0 -0 -0 -0 0 0 0 1 1 1 1 1 1 1 1 2 2 2 2 2 3 3
5 5 6 6 6 6 6 5 5 5 5 4 4 3 3 3 2 2 2 2 2 1 1 1 1 0 0 -0 -0 -1 -1 -1 -1 -1 -1 -1 -1 -1 -0 -0 0 0 0 -0 -0 -0 -0 0 0 0 0 0 0 0 1 1 1 1 1 1 1 1 2 2 2 2 2 2 2
5 5 5 5 5 5 5 5 5 5 4 4 3 3 2 2 2 2 1 1 1 1 1 0 -0 -0 -0 -1 -1 -1 -2 -2 -2 -2 -2 -2 -1 -1 -1 -0 -0 -1 -1 -0 -0 0 0 0 0 0 0 0 0 0 1 1 1 1 1 1 1 1 1 2 2 2 2 2 2
4 4 5 5 5 5 5 4 4 4 4 3 3 2 2 2 1 1 1 1 1 0 -0 -0 -1 -1 -1 -1 -1 -2 -2 -2 -2 -2 -2 -2 -1 -1 -1 -1 -1 -1 -1 -1 -0 -0 0 0 0 1 1 0 0 0 0 1 1 0 0 0 1 1 1 1 1 1 1 1 1
4 4 5 4 4 4 4 4 4 3 3 3 2 2 1 1 1 0 0 -0 -0 -1 -1 -1 -1 -1 -1 -2 -2 -2 -2 -2 -2 -2 -2 -1 -1 -1 -1 -1 -1 -1 -1 -1 -1 -1 -0 0 0 0 0 0 0 -0 0 0 0 0 0 0 0 1 1 1 1 1 1 1 1
4 4 4 4 3 3 3 3 3 3 2 2 2 1 1 0 -0 -0 -1 -1 -1 -1 -2 -2 -2 -2 -2 -2 -2 -2 -2 -2 -2 -1 -1 -1 -1 -1 -1 -1 -1 -2 -2 -2 -2 -1 -1 -1 -0 0 0 -0 -0 -0 -0 0 0 0 0 1 1 1 1 1 1 1 1 1 1
4 3 3 3 2 2 2 2 2 2 2 1 1 1 0 -0 -1 -1 -1 -1 -2 -2 -2 -3 -2 -2 -2 -2 -2 -2 -2 -2 -1 -1 -1 -1 -1 -1 -1 -2 -2 -2 -2 -2 -2 -2 -1 -1 -1 -0 -0 -0 -0 -0 -0 -0 -0 0 0 0 0 0 0 0 0 0 0 0 0
3 2 2 2 2 1 2 2 1 1 1 1 1 0 -0 -1 -1 -2 -2 -2 -2 -3 -3 -3 -3 -3 -3 -3 -3 -2 -2 -1 -1 -1 -1 -1 -1 -2 -2 -2 -2 -2 -2 -2 -2 -2 -2 -1 -1 -1 -0 -0 -0 -1 -1 -1 -0 -0 -0 -0 -0 0 0 0 0 0 0 0 0
2 2 1 1 1 1 1 1 1 1 1 1 0 -1 -1 -2 -2 -2 -2 -3 -3 -3 -3 -3 -3 -3 -3 -2 -2 -2 -2 -2 -2 -1 -2 -2 -2 -2 -2 -2 -2 -2 -2 -3 -3 -2 -2 -2 -1 -1 -1 -1 -1 -1 -1 -1 -1 -1 -1 -1 -0 -0 -0 -0 -0 -0 -0 -0 -0
1 1 1 1 1 0 0 0 1 1 0 -0 -1 -1 -2 -2 -2 -3 -3 -3 -3 -3 -3 -4 -3 -3 -2 -2 -2 -2 -2 -2 -2 -2 -2 -2 -2 -2 -2 -2 -2 -2 -3 -3 -3 -3 -3 -2 -2 -2 -2 -1 -1 -1 -1 -1 -1 -1 -1 -1 -1 -1 -1 -1 -1 -1 -1 -1 -1
0 0 0 0 0 -0 -0 -0 0 0 -0 -1 -1 -2 -2 -3 -3 -3 -3 -3 -3 -4 -4 -4 -3 -2 -2 -3 -2 -2 -2 -2 -2 -2 -2 -2 -2 -3 -3 -3 -2 -3 -3 -4 -4 -4 -4 -3 -3 -2 -2 -2 -2 -2 -2 -2 -2 -2 -2 -2 -1 -1 -1 -1 -1 -1 -1 -1 -1
-0 -0 -0 -0 -0 -1 -1 -1 -0 -0 -1 -1 -2 -2 -3 -3 -4 -4 -4 -4 -4 -4 -4 -4 -3 -3 -3 -3 -3 -3 -3 -3 -3 -3 -3 -3 -3 -3 -3 -3 -3 -3 -4 -4 -4 -4 -4 -4 -3 -3 -3 -2 -3 -3 -3 -3 -2 -2 -2 -2 -2 -2 -2 -2 -2 -2 -2 -2 -2
-1 -1 -1 -1 -1 -1 -1 -1 -1 -1 -1 -2 -2 -3 -3 -4 -4 -5 -5 -5 -4 -4 -4 -4 -3 -3 -3 -3 -3 -3 -3 -3 -3 -3 -3 -3 -3 -4 -3 -3 -3 -4 -4 -4 -4 -4 -5 -5 -4 -4 -3 -3 -3 -3 -3 -3 -3 -3 -3 -3 -3 -3 -3 -3 -3 -3 -3 -3 -2
-1 -1 -1 -1 -1 -1 -2 -2 -2 -2 -2 -2 -2 -3 -4 -4 -5 -5 -5 -5 -4 -4 -4 -4 -4 -4 -4 -4 -4 -4 -4 -4 -4 -4 -4 -4 -4 -4 -4 -4 -4 -4 -4 -4 -4 -4 -5 -5 -5 -5 -4 -3 -3 -3 -3 -4 -4 -3 -3 -3 -3 -3 -3 -3 -3 -3 -3 -3 -3
-2 -1 -1 -2 -2 -2 -2 -2 -2 -2 -3 -3 -3 -4 -4 -4 -5 -5 -5 -5 -5 -5 -4 -4 -5 -5 -5 -5 -5 -5 -4 -4 -4 -4 -4 -4 -4 -4 -4 -4 -4 -4 -5 -5 -5 -5 -5 -5 -6 -5 -5 -4 -4 -4 -4 -4 -4 -4 -4 -3 -3 -3 -3 -3 -3 -3 -3 -3 -3
-2 -2 -2 -2 -2 -3 -3 -3 -3 -3 -4 -4 -4 -4 -5 -5 -5 -5 -5 -5 -6 -5 -5 -5 -5 -5 -5 -5 -5 -5 -4 -4 -4 -4 -4 -5 -5 -5 -5 -5 -5 -5 -5 -5 -5 -5 -5 -5 -6 -6 -6 -5 -5 -4 -4 -4 -4 -4 -4 -4 -3 -3 -3 -3 -3 -3 -3 -3 -3
-2 -2 -3 -3 -3 -3 -3 -3 -4 -4 -4 -5 -5 -5 -5 -5 -6 -5 -5 -5 -6 -6 -6 -5 -5 -5 -5 -5 -5 -5 -5 -5 -5 -5 -5 -5 -5 -5 -5 -5 -5 -5 -5 -5 -5 -5 -6 -6 -6 -6 -6 -6 -5 -5 -5 -5 -4 -4 -4 -4 -4 -3 -3 -3 -3 -3 -3 -3 -3
-3 -3 -3 -3 -4 -4 -4 -4 -4 -5 -5 -6 -6 -6 -6 -6 -5 -5 -5 -5 -6 -6 -6 -6 -6 -6 -5 -5 -5 -5 -5 -5 -5 -6 -6 -6 -6 -6 -6 -5 -5 -5 -5 -5 -5 -6 -6 -6 -6 -7 -7 -6 -6 -6 -5 -5 -5 -5 -4 -4 -4 -4 -4 -4 -3 -3 -3 -3 -4
-3 -3 -4 -4 -4 -5 -5 -5 -5 -5 -6 -6 -6 -6 -6 -6 -5 -4 -5 -5 -5 -6 -6 -6 -6 -6 -6 -6 -5 -5 -5 -6 -6 -6 -6 -6 -6 -6 -6 -6 -6 -6 -6 -6 -6 -6 -6 -7 -7 -7 -7 -7 -7 -6 -6 -6 -5 -5 -5 -5 -4 -4 -4 -4 -4 -4 -4 -4 -4
-4 -4 -4 -4 -5 -5 -5 -5 -5 -6 -6 -7 -7 -6 -5 -5 -5 -5 -5 -5 -5 -6 -6 -6 -6 -6 -6 -6 -6 -6 -6 -6 -6 -6 -6 -6 -6 -6 -6 -6 -6 -6 -6 -6 -6 -6 -7 -7 -7 -7 -8 -8 -8 -7 -7 -6 -6 -6 -6 -5 -5 -5 -4 -4 -4 -4 -4 -4 -4
-4 -4 -5 -5 -5 -6 -6 -6 -6 -6 -7 -7 -7 -6 -5 -5 -5 -5 -5 -5 -6 -6 -6 -7 -7 -6 -6 -6 -6 -6 -6 -6 -6 -6 -6 -7 -7 -7 -7 -6 -6 -6 -6 -7 -7 -7 -7 -7 -8 -8 -8 -8 -8 -8 -7 -7 -7 -7 -7 -7 -6 -6 -5 -5 -4 -4 -4 -4 -4
Height
1449 1449 1449 1449 1449 1449 1449 1449 1449 1450 1449 1449 1449 1449 1449 1449 1448 1448 1448 1448 1448 1447 1447 1447 1447 1446 1446 1446 1446 1446 1445 1445 1445 1445 1445 1445 1445 1445 1445 1445 1445 1444 1444 1444 1444 1444 1443 1443 1443 1443 1443 1443 1443 1443 1443 1443 1443 1443 1443 1443 1443 1443 1443 1443 1443 1443 1443 1443 1443
1448 1448 1448 1448 1448 1448 1448 1448 1449 1449 1448 1448 1448 1448 1447 1447 1447 1447 1446 1446 1446 1446 1446 1445 1445 1445 1444 1444 1444 1444 1444 1444 1444 1443 1443 1443 1443 1443 1443 1443 1443 1443 1443 1442 1442 1442 1442 1441 1441 1441 1441 1441 1442 1442 1442 1442 1441 1441 1441 1441 1441 1441 1441 1441 1441 1441 1441 1442 1441
1447 1447 1447 1447 1447 1447 1448 1448 1448 1448 1447 1447 1446 1446 1446 1445 1445 1445 1445 1444 1444 1444 1444 1444 1443 1443 1443 1443 1443 1442 1442 1442 1442 1442 1442 1442 1442 1442 1441 1441 1441 1441 1440 1440 1440 1440 1439 1439 1439 1439 1439 1439 1440 1440 1440 1440 1439 1439 1439 1439 1439 1439 1439 1439 1439 1439 1440 1440 1440
1446 1446 1446 1446 1446 1446 1446 1447 1447 1446 1446 1445 1445 1444 1444 1444 1444 1443 1443 1443 1443 1443 1443 1442 1442 1442 1442 1441 1441 1441 1441 1441 1441 1440 1440 1440 1440 1440 1440 1439 1439 1439 1438 1438 1438 1438 1438 1438 1438 1438 1438 1438 1438 1438 1438 1438 1438 1438 1438 1438 1438 1438 1438 1438 1438 1438 1438 1438 1438
1445 1445 1445 1445 1445 1445 1445 1445 1445 1445 1444 1444 1443 1443 1443 1443 1442 1442 1442 1441 1441 1441 1441 1441 1441 1440 1440 1440 1440 1439 1439 1439 1439 1438 1438 1438 1438 1438 1438 1438 1437 1437 1437 1436 1436 1436 1435 1435 1435 1436 1436 1436 1436 1436 1436 1436 1436 1436 1436 1436 1436 1436 1436 1436 1436 1436 1436 1436 1436
1443 1443 1443 1444 1444 1444 1444 1443 1443 1443 1443 1443 1442 1442 1441 1441 1441 1440 1440 1440 1440 1440 1439 1439 1439 1439 1438 1438 1438 1438 1437 1437 1437 1437 1436 1436 1436 1436 1436 1435 1435 1435 1434 1434 1434 1433 1433 1433 1433 1433 1433 1434 1434 1434 1434 1434 1434 1434 1434 1434 1434 1434 1434 1434 1434 1434 1434 1434 1434
1442 1442 1442 1442 1443 1443 1443 1442 1442 1442 1441 1441 1441 1440 1440 1439 1439 1439 1439 1438 1438 1438 1438 1438 1438 1437 1437 1436 1436 1435 1435 1435 1434 1434 1434 1434 1434 1433 1433 1433 1433 1433 1432 1432 1432 1432 1432 1431 1432 1432 1432 1432 1432 1432 1432 1432 1432 1432 1432 1432 1432 1432 1433 1432 1433 1433 1433 1433 1433
1440 1440 1441 1441 1441 1441 1441 1441 1441 1440 1440 1440 1439 1439 1438 1438 1438 1438 1437 1437 1436 1436 1436 1436 1435 1435 1434 1434 1434 1433 1433 1433 1432 1432 1432 1432 1431 1431 1431 1430 1430 1430 1430 1429 1429 1429 1429 1429 1429 1429 1429 1429 1429 1429 1429 1429 1429 1430 1430 1430 1430 1430 1430 1430 1430 1431 1431 1431 1431
1439 1439 1439 1439 1439 1440 1440 1440 1439 1439 1439 1438 1438 1438 1437 1437 1436 1436 1435 1435 1435 1434 1434 1433 1433 1433 1433 1432 1432 1431 1431 1430 1430 1430 1429 1429 1429 1428 1428 1428 1428 1428 1427 1427 1427 1427 1427 1427 1427 1427 1427 1427 1427 1427 1427 1427 1427 1428 1428 1428 1428 1428 1428 1428 1428 1428 1429 1429 1429
1438 1438 1438 1438 1438 1438 1438 1438 1438 1438 1437 1437 1437 1436 1436 1435 1435 1434 1434 1433 1433 1432 1432 1431 1431 1431 1430 1429 1429 1428 1428 1428 1427 1427 1427 1426 1426 1426 1425 1425 1425 1424 1424 1424 1424 1424 1424 1424 1424 1424 1424 1424 1425 1425 1425 1425 1425 1425 1425 1425 1426 1426 1426 1426 1426 1426 1426 1427 1427
1437 1437 1437 1437 1437 1437 1437 1437 1436 1436 1436 1435 1435 1434 1434 1433 1433 1433 1432 1431 1431 1430 1430 1429 1429 1428 1428 1427 1426 1426 1425 1425 1424 1424 1423 1423 1423 1423 1422 1422 1422 1422 1422 1422 1421 1421 1421 1421 1421 1421 1422 1422 1422 1422 1423 1423 1423 1423 1423 1423 1423 1423 1423 1424 1424 1424 1424 1424 1424
1436 1435 1435 1435 1435 1435 1435 1435 1435 1434 1434 1434 1433 1433 1432 1432 1431 1431 1430 1429 1429 1428 1428 1427 1426 1426 1425 1424 1423 1423 1422 1422 1421 1421 1420 1420 1420 1419 1419 1419 1418 1418 1418 1418 1418 1418 1418 1418 1418 1418 1419 1419 1419 1420 1420 1420 1420 1420 1420 1420 1420 1421 1421 1421 1422 1422 1422 1422 1422
1435 1434 1434 1434 1434 1434 1434 1433 1433 1433 1433 1432 1432 1431 1431 1430 1429 1429 1428 1428 1427 1426 1425 1424 1423 1423 1422 1421 1420 1420 1419 1419 1418 1418 1417 1417 1416 1416 1416 1416 1415 1415 1416 1416 1415 1415 1415 1415 1416 1416 1416 1416 1417 1417 1417 1417 1417 1417 1417 1418 1418 1418 1418 1419 1419 1419 1419 1420 1420
1434 1433 1433 1433 1433 1432 1432 1432 1432 1431 1431 1430 1430 1429 1429 1428 1428 1427 1426 1425 1424 1423 1423 1422 1421 1420 1419 1418 1418 1417 1417 1416 1415 1415 1414 1414 1413 1413 1413 1413 1413 1413 1413 1413 1413 1413 1413 1413 1413 1413 1413 1413 1414 1414 1414 1414 1414 1414 1414 1414 1415 1415 1416 1416 1417 1417 1417 1417 1418
1433 1433 1432 1432 1431 1431 1431 1430 1430 1430 1429 1429 1428 1428 1427 1427 1426 1425 1424 1423 1422 1421 1420 1419 1418 1418 1417 1416 1415 1415 1414 1414 1413 1413 1412 1412 1411 1411 1411 1411 1410 1410 1410 1410 1410 1410 1410 1410 1410 1410 1410 1410 1411 1411 1411 1411 1411 1411 1411 1412 1412 1412 1413 1413 1414 1414 1414 1415 1415
1432 1432 1431 1430 1430 1429 1429 1429 1428 1428 1428 1427 1427 1426 1425 1424 1423 1423 1422 1421 1420 1419 1418 1418 1417 1416 1415 1414 1413 1413 1413 1412 1411 1411 1410 1410 1410 1409 1409 1409 1409 1408 1408 1408 1408 1408 1408 1408 1408 1408 1408 1408 1408 1408 1408 1408 1408 1408 1408 1408 1409 1409 1410 1410 1411 1411 1412 1412 1412
1431 1430 1430 1429 1428 1428 1428 1427 1427 1426 1426 1425 1425 1424 1423 1422 1421 1420 1419 1419 1418 1417 1416 1416 1415 1414 1413 1413 1412 1412 1411 1410 1410 1409 1409 1409 1408 1408 1408 1408 1408 1408 1408 1407 1407 1407 1407 1407 1407 1407 1406 1406 1405 1405 1405 1405 1405 1405 1405 1405 1406 1406 1407 1408 1408 1408 1409 1409 1410
1429 1429 1428 1427 1427 1426 1426 1426 1425 1425 1424 1423 1423 1422 1421 1420 1419 1418 1417 1417 1416 1416 1415 1414 1413 1413 1412 1411 1411 1410 1410 1409 1409 1408 1408 1408 1408 1408 1408 1408 1408 1408 1407 1407 1406 1406 1406 1406 1405 1405 1405 1404 1403 1403 1403 1403 1403 1403 1403 1403 1404 1404 1405 1405 1406 1406 1407 1407 1408
1427 1427 1426 1425 1425 1425 1425 1424 1423 1423 1422 1422 1421 1420 1419 1418 1417 1417 1416 1415 1414 1414 1413 1413 1412 1411 1411 1410 1409 1409 1408 1408 1408 1408 1408 1408 1408 1408 1408 1408 1407 1407 1406 1406 1405 1406 1406 1405 1404 1404 1403 1403 1402 1401 1401 1401 1401 1401 1401 1402 1402 1403 1403 1403 1404 1404 1404 1405 1405
1425 1425 1424 1424 1424 1424 1423 1423 1422 1421 1420 1420 1419 1418 1418 1417 1416 1415 1414 1414 1413 1413 1413 1412 1411 1410 1409 1409 1409 1408 1408 1408 1408 1408 1408 1408 1408 1408 1408 1408 1407 1406 1405 1405 1404 1404 1405 1404 1403 1402 1402 1401 1400 1400 1399 1399 1399 1400 1400 1401 1401 1402 1402 1402 1403 1403 1403 1403 1403
1424 1423 1423 1423 1423 1423 1422 1421 1420 1419 1418 1418 1418 1417 1416 1415 1415 1414 1413 1413 1413 1412 1411 1411 1410 1409 1409 1408 1408 1408 1408 1407 1408 1408 1408 1408 1408 1408 1408 1407 1406 1405 1404 1404 1403 1403 1403 1403 1402 1401 1400 1400 1399 1398 1398 1398 1399 1399 1399 1400 1401 1401 1401 1402 1402 1402 1402 1402 1402
1423 1423 1423 1422 1422 1421 1420 1419 1418 1418 1417 1417 1416 1416 1415 1414 1413 1413 1413 1412 1412 1411 1410 1410 1409 1409 1408 1408 1408 1407 1407 1407 1407 1407 1407 1407 1407 1407 1407 1406 1405 1404 1403 1403 1403 1402 1402 1401 1400 1400 1399 1398 1398 1398 1398 1398 1398 1398 1399 1400 1400 1400 1401 1401 1401 1401 1401 1401 1400
1421 1421 1421 1421 1420 1419 1418 1417 1416 1416 1416 1415 1415 1414 1414 1413 1412 1412 1412 1411 1411 1410 1410 1409 1408 1408 1408 1407 1407 1407 1407 1407 1407 1407 1407 1406 1406 1406 1405 1404 1403 1403 1402 1402 1401 1401 1400 1400 1399 1399 1398 1398 1397 1397 1397 1397 1398 1398 1398 1399 1400 1400 1400 1400 1400 1400 1400 1400 1400
1420 1419 1419 1418 1418 1417 1416 1415 1415 1414 1414 1414 1413 1413 1413 1412 1411 1411 1410 1410 1410 1409 1409 1408 1408 1407 1407 1407 1406 1406 1406 1406 1406 1406 1406 1406 1405 1405 1404 1403 1403 1402 1402 1401 1400 1399 1399 1399 1399 1398 1398 1397 1397 1396 1396 1397 1397 1398 1398 1398 1399 1399 1400 1400 1400 1399 1399 1399 1399
1418 1418 1417 1416 1415 1414 1414 1413 1413 1413 1413 1413 1412 1412 1411 1411 1410 1410 1409 1409 1409 1408 1408 1408 1407 1407 1406 1406 1406 1406 1406 1406 1405 1405 1405 1405 1404 1404 1403 1403 1402 1402 1401 1400 1400 1399 1399 1399 1398 1397 1397 1396 1396 1396 1396 1396 1397 1397 1397 1398 1398 1399 1399 1399 1399 1399 1398 1398 1398
1416 1416 1415 1414 1413 1413 1412 1412 1412 1412 1412 1411 1411 1411 1410 1409 1409 1409 1408 1408 1408 1408 1407 1407 1406 1406 1405 1405 1405 1405 1405 1405 1405 1405 1404 1404 1403 1402 1402 1402 1401 1401 1401 1400 1400 1399 1398 1398 1398 1397 1396 1396 1396 1395 1395 1395 1396 1396 1397 1397 1398 1398 1398 1398 1398 1398 1398 1397 1397
1414 1414 1413 1413 1412 1411 1411 1410 1410 1410 1410 1410 1410 1409 1409 1408 1408 1408 1408 1407 1407 1407 1407 1406 1406 1405 1405 1405 1405 1405 1405 1405 1404 1404 1403 1403 1402 1402 1401 1401 1401 1401 1400 1400 1399 1398 1398 1398 1397 1397 1396 1396 1395 1395 1395 1395 1395 1396 1396 1396 1397 1397 1397 1397 1397 1396 1396 1396 1396
1413 1412 1412 1411 1411 1410 1409 1409 1409 1409 1409 1409 1409 1408 1408 1407 1407 1407 1407 1407 1407 1406 1406 1406 1405 1405 1405 1405 1405 1405 1404 1404 1403 1403 1402 1402 1401 1401 1401 1401 1401 1401 1400 1399 1398 1398 1398 1397 1397 1397 1396 1395 1395 1395 1394 1394 1395 1395 1395 1395 1395 1396 1396 1396 1396 1395 1395 1395 1395
1411 1411 1410 1410 1409 1408 1408 1408 1408 1408 1408 1408 1408 1407 1407 1407 1406 1406 1406 1406 1406 1406 1406 1405 1405 1405 1405 1405 1404 1404 1404 1403 1403 1402 1402 1401 1401 1400 1400 1400 1400 1400 1399 1398 1398 1397 1397 1397 1396 1396 1396 1395 1394 1394 1394 1394 1394 1394 1394 1394 1394 1394 1394 1394 1394 1394 1394 1394 1393
1409 1409 1409 1408 1408 1408 1407 1407 1407 1407 1407 1407 1407 1406 1406 1406 1405 1405 1405 1405 1405 1405 1405 1405 1405 1405 1405 1404 1404 1404 1403 1403 1402 1402 1402 1401 1400 1400 1399 1399 1399 1398 1398 1398 1397 1397 1396 1396 1396 1395 1395 1394 1394 1393 1393 1393 1393 1393 1393 1393 1393 1393 1393 1393 1393 1393 1393 1393 1392
1408 1408 1407 1407 1407 1407 1406 1406 1406 1406 1406 1406 1406 1405 1405 1405 1404 1404 1404 1404 1404 1404 1404 1404 1405 1404 1404 1404 1404 1403 1403 1402 1402 1402 1401 1400 1399 1399 1398 1398 1398 1398 1398 1398 1397 1396 1395 1395 1395 1394 1394 1394 1393 1393 1393 1393 1393 1393 1393 1393 1393 1393 1393 1393 1392 1392 1392 1391 1391
1407 1406 1406 1406 1406 1405 1405 1405 1405 1405 1405 1405 1405 1405 1404 1404 1403 1403 1403 1403 1403 1404 1404 1404 1404 1404 1403 1403 1403 1403 1402 1402 1402 1401 1400 1399 1399 1398 1398 1398 1398 1398 1398 1398 1398 1396 1395 1393 1393 1393 1393 1393 1393 1393 1393 1392 1392 1392 1392 1392 1392 1392 1392 1392 1391 1391 1391 1390 1390
1405 1405 1405 1405 1405 1404 1404 1404 1404 1404 1404 1404 1404 1404 1404 1403 1403 1403 1403 1403 1403 1403 1403 1403 1403 1403 1403 1402 1402 1402 1402 1401 1401 1400 1400 1399 1398 1398 1398 1397 1397 1397 1397 1398 1398 1397 1395 1393 1392 1392 1393 1393 1392 1392 1392 1392 1392 1392 1392 1392 1392 1392 1391 1391 1391 1390 1390 1389 1389
1404 1404 1404 1404 1404 1404 1403 1403 1403 1403 1403 1403 1403 1403 1403 1403 1403 1403 1402 1403 1402 1402 1402 1402 1402 1402 1402 1402 1402 1401 1401 1401 1400 1400 1399 1399 1398 1398 1397 1397 1396 1396 1397 1397 1397 1397 1395 1393 1391 1391 1391 1392 1392 1392 1391 1391 1391 1391 1391 1391 1391 1391 1391 1390 1390 1390 1389 1388 1388
1403 1403 1403 1403 1403 1403 1403 1403 1402 1402 1402 1402 1402 1402 1402 1402 1402 1402 1402 1402 1402 1401 1401 1402 1401 1401 1402 1401 1401 1401 1401 1400 1400 1399 1399 1398 1398 1397 1397 1396 1396 1396 1396 1396 1396 1396 1395 1393 1391 1390 1390 1391 1391 1391 1391 1391 1391 1391 1391 1390 1390 1390 1390 1390 1389 1389 1388 1388 1387
1403 1403 1403 1403 1402 1402 1402 1402 1402 1402 1402 1402 1402 1402 1402 1402 1401 1401 1401 1401 1401 1401 1401 1401 1401 1401 1401 1401 1401 1401 1400 1400 1399 1399 1398 1398 1398 1397 1397 1396 1396 1395 1395 1395 1395 1395 1395 1393 1391 1389 1389 1389 1390 1390 1390 1390 1390 1390 1390 1389 1389 1389 1389 1389 1388 1388 1387 1387 1386
1402 1402 1402 1402 1402 1402 1401 1401 1401 1401 1401 1401 1401 1401 1401 1401 1401 1401 1402 1401 1400 1400 1400 1401 1401 1401 1400 1400 1400 1400 1400 1399 1399 1398 1398 1398 1398 1397 1396 1396 1395 1395 1395 1394 1394 1394 1394 1393 1391 1389 1388 1388 1389 1389 1389 1389 1389 1388 1388 1388 1388 1388 1388 1388 1387 1387 1386 1386 1385
1402 1402 1402 1402 1402 1401 1401 1401 1401 1401 1401 1401 1401 1401 1401 1401 1401 1402 1402 1401 1400 1400 1400 1400 1400 1400 1400 1400 1400 1399 1399 1399 1398 1398 1398 1397 1397 1397 1396 1395 1395 1395 1394 1394 1394 1393 1393 1392 1391 1389 1388 1387 1388 1388 1388 1388 1388 1388 1387 1388 1387 1387 1387 1386 1386 1386 1385 1384 1384
1401 1402 1402 1402 1401 1401 1401 1401 1401 1401 1401 1401 1401 1401 1401 1401 1402 1401 1401 1400 1400 1400 1400 1400 1400 1400 1400 1399 1399 1399 1398 1398 1398 1398 1397 1397 1397 1396 1396 1395 1395 1394 1394 1393 1393 1393 1392 1392 1391 1389 1387 1386 1386 1386 1387 1386 1386 1386 1386 1386 1386 1386 1385 1385 1384 1384 1383 1383 1383
1401 1401 1401 1401 1401 1401 1400 1400 1401 1401 1401 1401 1401 1401 1401 1402 1402 1401 1400 1400 1400 1400 1400 1400 1400 1400 1399 1399 1399 1398 1398 1398 1397 1397 1397 1397 1396 1396 1395 1395 1394 1394 1393 1393 1392 1392 1391 1391 1390 1389 1388 1386 1385 1385 1385 1385 1385 1384 1384 1383 1383 1383 1383 1383 1383 1383 1382 1382 1381
1401 1401 1401 1401 1401 1401 1400 1400 1400 1401 1401 1401 1401 1401 1401 1402 1402 1401 1400 1400 1400 1400 1400 1400 1400 1400 1399 1398 1398 1398 1398 1397 1397 1396 1396 1396 1395 1395 1394 1394 1393 1393 1393 1392 1391 1391 1390 1390 1390 1389 1388 1386 1385 1384 1384 1384 1384 1383 1383 1382 1382 1382 1381 1381 1381 1381 1380 1380 1379
Wind_Speed
7 7 7 7 7 8 8 9 9 9 10 10 10 11 12 12 13 13 14 15 15 16 16 17 17 17 18 18 17 17 17 16 16 16 16 16 16 16 16 16 16 17 17 18 18 18 17 17 17 17 16 16 16 16 16 16 16 16 16 16 16 15 15 14 14 14 14 14 14
6 6 6 7 8 8 9 10 11 11 11 12 12 12 13 14 14 15 15 16 16 17 17 17 18 18 18 18 17 17 17 16 16 16 16 16 16 16 17 17 17 18 18 18 18 18 18 17 17 16 16 16 15 15 15 16 16 16 15 15 15 15 15 14 14 14 13 13 14
5 5 6 6 7 8 10 11 12 13 13 13 14 14 14 15 15 16 16 16 17 17 17 17 17 17 17 17 17 17 17 16 16 16 16 16 16 17 17 17 18 18 18 18 19 19 18 18 18 17 17 16 16 15 15 15 15 15 15 14 14 14 14 14 14 13 13 13 14
5 5 6 6 7 8 10 11 12 13 14 14 14 15 15 15 16 16 16 16 16 16 16 17 17 17 17 17 17 17 17 17 17 17 17 17 17 17 17 17 18 18 18 18 19 19 19 19 18 18 18 17 17 16 16 16 16 15 15 14 14 14 14 14 13 13 13 13 13
5 6 6 6 7 8 9 11 12 13 14 14 14 15 15 15 15 16 16 16 16 16 16 16 17 17 17 17 18 18 18 18 18 18 18 18 18 18 18 18 18 18 18 18 18 19 19 18 18 18 18 18 18 18 17 17 17 16 15 15 15 14 14 14 13 13 13 14 14
6 6 6 7 8 9 10 10 11 12 13 14 14 15 15 15 15 16 16 16 16 17 17 18 18 18 19 19 19 20 20 20 20 20 20 20 20 20 20 20 20 20 20 20 19 19 19 19 18 18 18 19 19 19 19 18 18 17 17 16 16 15 15 14 14 14 14 14 14
7 7 7 7 8 9 10 11 12 13 14 14 15 15 16 16 16 17 17 17 18 18 19 19 20 20 21 22 22 22 23 23 23 23 23 23 23 23 23 23 23 22 22 22 21 21 20 20 19 19 19 19 19 19 19 20 19 19 18 18 17 17 17 16 16 15 15 15 15
8 8 8 8 9 10 11 12 13 14 14 15 16 16 17 17 18 18 19 19 19 20 21 21 22 23 23 24 24 25 25 26 26 26 26 26 26 26 26 26 26 25 25 25 24 24 23 22 21 21 20 20 20 20 20 21 21 20 20 20 19 19 19 18 18 18 17 17 17
10 9 9 9 10 11 12 13 14 14 15 16 17 18 18 19 20 20 20 21 22 22 23 24 24 25 25 26 27 27 28 28 28 28 28 29 29 29 29 28 28 28 27 27 27 26 26 25 24 23 23 22 22 22 22 22 22 22 22 21 21 21 21 20 20 20 20 19 19
11 10 10 10 11 12 13 14 15 16 17 17 18 19 20 21 21 22 23 23 24 25 25 26 26 27 28 28 29 29 30 30 30 30 31 31 31 31 31 30 30 30 29 29 28 28 28 27 26 26 25 25 24 24 24 23 23 23 23 23 23 22 22 22 21 21 21 21 21
11 10 10 11 12 13 14 15 16 17 18 19 20 21 22 22 23 24 24 25 26 26 27 28 28 29 29 30 30 31 31 31 31 32 32 32 32 32 32 32 31 31 31 30 30 29 29 28 28 27 27 26 26 25 25 25 24 24 24 24 24 23 23 23 22 22 21 21 21
11 11 11 12 13 14 15 17 18 19 19 20 21 22 23 24 24 25 25 26 27 27 28 29 29 29 30 30 30 30 30 31 31 31 31 31 31 31 31 32 32 32 31 31 31 30 30 29 29 28 28 27 27 26 26 26 25 25 25 25 25 24 24 24 23 22 21 21 21
11 11 12 13 14 15 17 18 19 20 20 21 22 23 23 24 25 25 26 27 27 28 28 29 29 29 29 29 29 29 28 28 28 28 28 28 28 29 29 29 30 30 30 31 31 31 31 31 31 30 30 29 29 28 28 27 27 27 27 27 26 26 26 25 24 23 22 22 21
12 13 13 14 15 16 18 19 20 20 21 21 22 22 23 24 25 26 26 27 28 28 28 28 27 27 27 26 26 25 25 24 24 24 24 24 24 25 25 25 26 26 27 28 28 29 29 29 30 30 30 30 30 30 29 29 29 29 29 29 29 28 28 27 26 25 24 23 22
15 15 15 15 16 17 18 19 20 20 21 21 22 22 23 24 25 26 26 27 27 27 26 25 24 24 23 22 22 21 21 20 20 20 20 20 20 20 20 20 20 21 21 22 22 22 23 23 24 25 25 25 26 26 26 27 27 28 29 29 30 30 30 29 29 28 27 25 24
17 17 17 17 17 18 18 19 20 20 21 22 22 23 24 25 25 25 25 25 24 23 23 22 21 20 19 19 18 18 17 17 17 16 16 16 15 15 14 14 14 14 14 14 14 14 14 15 15 16 16 17 18 18 19 20 21 23 24 25 27 28 28 29 29 28 28 27 26
19 19 18 18 18 18 19 19 20 21 22 23 24 24 24 24 24 23 22 22 21 20 19 18 18 17 17 16 16 15 15 14 14 13 13 12 10 9 9 8 8 8 8 8 8 8 8 8 8 9 9 10 11 12 12 13 14 15 16 18 19 21 22 24 25 25 26 26 26
20 19 19 18 18 19 20 20 21 22 23 24 24 25 24 23 22 21 20 19 18 17 17 16 16 16 15 15 15 14 13 12 11 9 8 7 6 5 4 4 4 5 6 6 6 5 5 5 5 5 6 7 8 8 9 9 10 10 11 12 13 14 16 17 18 20 21 22 22
20 19 19 19 20 20 21 21 21 22 23 24 24 24 23 21 20 19 18 17 17 16 16 15 15 15 14 14 13 12 11 9 7 4 2 1 2 2 2 2 3 5 6 6 4 3 3 4 5 5 6 6 6 7 7 8 8 8 9 10 10 11 12 13 14 15 16 17 18
19 19 19 20 21 21 21 21 21 22 23 23 23 22 20 19 18 17 17 16 16 16 15 15 14 13 13 12 11 10 9 6 4 1 3 3 1 0 1 1 3 4 4 4 3 2 3 4 6 6 7 7 7 7 7 7 8 8 9 10 10 11 12 12 13 13 14 14 15
18 18 19 19 20 20 20 20 21 22 22 22 21 19 18 17 16 16 16 16 15 15 14 13 12 11 11 10 9 7 6 3 2 4 5 4 3 1 1 2 2 3 3 3 4 3 3 4 5 6 7 7 7 7 7 7 8 8 9 10 10 11 11 12 12 12 13 13 13
17 17 17 18 19 19 20 21 22 22 22 21 19 17 16 15 16 16 15 15 14 13 12 11 10 10 9 8 7 5 3 3 4 5 5 5 4 4 4 4 4 4 4 4 5 4 3 4 5 5 5 5 5 5 6 6 7 7 7 8 9 9 9 9 9 10 11 11 11
15 16 17 17 18 19 20 21 22 22 21 19 17 15 15 15 15 15 15 14 13 12 11 9 8 8 7 6 4 2 1 3 4 5 5 5 5 5 5 4 4 5 5 4 3 2 4 5 4 4 4 3 3 3 3 5 5 6 6 6 7 7 6 7 7 8 9 9 10
14 15 16 17 18 19 20 21 21 21 19 17 15 14 14 14 14 14 14 13 12 10 9 8 7 6 5 3 1 1 2 2 4 5 5 5 5 5 4 4 4 3 2 3 2 2 4 4 4 4 3 3 2 2 2 3 5 5 6 6 7 7 7 8 8 8 9 9 10
14 15 16 17 18 19 20 20 20 18 16 15 14 13 13 13 13 13 12 11 10 9 7 6 5 4 3 2 2 2 1 1 2 3 3 4 5 5 4 2 1 2 5 6 5 3 2 3 4 4 4 4 3 1 1 2 4 6 6 7 7 8 8 8 9 9 8 8 9
13 14 15 16 17 18 19 19 17 16 14 13 12 12 12 12 12 11 10 9 8 7 6 5 4 4 3 2 2 2 1 0 1 2 4 5 5 5 4 3 5 6 7 7 6 4 1 2 3 3 3 3 2 1 2 3 5 6 7 8 8 8 8 8 8 8 8 8 8
12 13 14 15 16 16 16 17 15 14 12 12 11 11 11 11 10 9 8 8 7 5 4 3 4 5 4 3 2 2 2 2 3 5 6 7 6 5 5 4 5 7 8 7 6 5 4 3 2 2 3 3 3 4 5 6 6 7 8 9 9 8 8 8 8 8 8 8 9
12 13 14 14 14 14 15 15 13 12 11 11 10 10 10 9 8 7 7 7 5 4 2 2 3 4 4 2 1 2 2 4 5 6 7 6 6 5 5 5 5 7 8 7 6 6 6 6 5 6 6 7 7 8 8 8 8 8 9 9 9 9 8 8 8 8 8 9 9
12 13 13 13 13 13 13 13 12 11 11 10 10 9 9 8 7 6 6 6 4 3 2 0 2 3 2 1 2 3 4 5 5 5 5 5 5 6 6 6 4 7 9 8 8 7 7 7 7 8 8 9 9 9 9 9 9 9 8 8 8 8 8 8 8 8 9 9 9
12 12 12 12 12 12 12 12 11 11 10 10 9 8 7 6 6 6 6 5 4 3 3 3 2 1 1 2 3 4 5 5 5 5 5 5 5 5 6 5 4 4 9 10 10 9 7 7 7 7 8 8 9 9 10 10 9 9 9 8 8 8 8 8 9 9 9 10 10
12 12 12 12 11 11 11 11 11 10 10 9 8 7 6 5 5 5 5 5 5 4 4 5 5 4 3 4 4 4 4 4 5 5 5 4 3 3 2 3 3 1 6 10 11 11 10 8 6 6 7 8 9 10 10 11 11 10 9 9 8 8 8 8 8 9 9 9 9
11 11 11 11 10 10 10 10 10 10 9 8 6 5 4 3 4 4 4 5 4 4 5 6 6 5 5 5 5 5 4 5 5 6 5 3 2 2 2 2 2 1 4 8 11 13 13 11 9 8 8 9 10 11 12 12 11 11 10 9 8 8 8 8 8 8 8 8 8
9 10 10 9 9 9 9 9 10 9 9 7 6 4 2 1 2 3 3 4 4 4 5 6 7 7 6 5 6 6 6 6 6 7 7 7 6 6 6 6 5 3 3 5 9 12 13 13 11 10 10 10 11 12 12 12 11 10 9 8 7 7 7 7 7 6 6 6 6
9 9 9 9 8 8 8 8 9 9 8 7 5 3 1 1 2 2 3 3 4 4 5 6 6 6 6 6 6 7 7 7 7 7 8 9 9 9 9 8 7 6 4 4 7 9 11 13 12 12 11 12 12 13 13 11 10 9 8 7 7 7 7 6 6 5 5 5 4
8 9 9 9 8 8 7 8 8 7 7 6 5 4 3 2 2 2 2 3 4 3 2 3 3 4 4 5 6 7 7 7 6 7 8 10 11 11 10 9 8 7 6 5 6 8 10 12 13 13 13 13 13 13 12 11 10 9 8 8 8 8 8 7 6 6 6 5 5
8 8 8 8 8 7 7 7 7 6 5 4 4 4 4 3 2 1 1 2 3 3 1 1 2 2 3 4 5 5 6 5 5 6 7 9 10 11 10 10 9 8 7 7 7 7 9 11 12 13 14 13 13 12 11 10 10 10 10 10 10 10 10 9 9 8 8 8 8
7 7 7 7 7 7 7 7 6 5 3 3 4 4 4 3 3 2 3 4 3 2 2 1 1 2 3 4 4 4 5 5 5 6 6 7 9 9 9 9 9 9 9 9 9 8 8 10 12 14 14 14 12 12 11 11 11 11 11 11 11 11 12 12 11 11 11 11 11
6 6 6 6 6 6 6 6 5 4 3 2 3 4 4 5 4 3 5 7 4 1 1 1 1 2 3 4 4 5 5 5 5 6 6 7 8 8 9 9 10 11 11 11 10 8 7 9 11 13 14 15 14 13 12 12 12 12 12 12 12 13 13 13 13 13 13 13 13
6 6 6 5 5 5 5 5 4 4 4 3 3 3 5 5 4 2 5 6 4 2 1 1 1 2 3 4 5 5 5 5 5 6 6 7 7 8 8 9 10 11 11 11 11 8 6 8 10 12 14 16 16 15 14 13 13 14 14 14 14 14 14 14 15 15 15 15 15
5 5 5 5 4 4 4 4 3 4 4 2 2 1 3 4 3 2 4 3 3 2 1 1 1 2 4 4 5 5 5 6 6 6 7 7 8 8 9 9 10 10 11 11 11 9 6 7 9 11 14 16 17 16 16 15 14 14 14 14 14 13 13 13 14 14 15 15 15
5 5 5 4 4 3 4 4 3 2 3 1 2 2 1 3 2 2 2 2 2 2 1 1 1 2 4 5 5 5 5 5 6 6 7 8 9 9 10 10 11 11 11 11 11 9 7 6 7 9 11 14 16 16 16 15 14 14 14 13 13 12 11 11 11 11 11 11 11
Wind_Direction
246 253 259 266 272 275 278 280 282 284 286 288 290 292 293 294 295 296 296 297 296 295 294 293 291 289 287 285 284 283 283 283 282 282 281 281 280 280 279 279 278 278 277 277 276 276 275 275 274 274 273 272 272 271 271 270 269 269 268 268 268 267 266 265 264 264 263 262 262
248 254 260 265 269 272 276 277 280 282 284 286 288 290 291 293 294 296 296 297 296 295 294 292 290 288 287 286 284 283 283 282 281 281 280 280 281 281 281 281 281 280 280 280 279 279 278 278 278 277 277 276 275 274 272 271 270 269 268 267 266 265 264 262 261 260 259 259 259
252 257 262 267 270 275 278 279 280 282 284 286 289 290 292 293 295 296 297 297 297 295 293 291 289 287 285 284 283 283 282 281 281 281 281 281 281 282 283 283 283 283 283 282 281 280 279 279 278 278 278 278 277 276 274 273 272 270 268 267 266 264 262 259 258 256 255 255 257
255 261 268 272 276 278 280 281 282 283 285 288 289 291 293 294 296 298 298 298 297 295 292 290 288 286 285 284 283 283 282 282 282 282 282 282 282 283 283 284 284 284 284 284 283 281 280 279 278 277 277 277 276 276 275 274 274 272 270 268 267 264 261 259 256 254 253 253 255
256 264 271 276 280 284 286 287 287 287 288 290 291 292 293 295 297 298 298 297 295 293 291 289 287 286 285 285 285 285 285 284 284 284 284 284 284 283 283 283 283 283 283 283 283 282 281 279 278 276 275 274 274 274 274 274 273 272 271 270 268 266 263 260 257 255 254 254 256
256 263 270 278 285 291 293 294 293 292 292 292 292 293 293 294 295 296 295 293 292 290 288 287 286 286 285 286 286 286 286 286 286 285 285 285 284 283 283 282 281 281 281 281 281 280 280 279 277 276 275 273 272 272 271 271 271 271 270 269 268 267 265 263 261 259 258 258 258
256 263 272 281 290 295 298 298 297 296 294 293 292 292 291 291 291 291 290 289 288 287 286 285 285 285 285 285 285 285 285 285 285 284 284 284 283 282 281 280 280 279 279 279 278 278 277 277 276 275 274 274 272 271 270 269 268 268 268 267 267 267 267 266 266 265 265 264 264
257 265 274 284 292 296 298 298 297 295 293 291 290 289 288 287 287 287 286 286 285 284 284 283 283 282 282 282 282 282 282 282 282 281 281 281 280 280 279 278 278 278 277 277 277 277 276 275 275 274 273 273 272 271 270 269 268 267 266 266 267 267 268 268 269 270 270 270 270
257 265 274 283 291 295 296 296 294 293 290 288 287 285 284 284 284 284 284 284 283 283 282 282 281 280 280 279 279 278 278 278 278 278 277 277 277 277 277 277 277 277 276 276 276 276 275 275 274 273 272 271 271 270 270 269 268 267 267 267 267 267 268 269 271 272 273 274 274
256 263 273 282 289 293 294 294 293 291 288 286 284 283 282 283 283 283 283 283 283 282 282 281 280 280 279 278 277 277 277 276 276 275 275 275 275 275 275 275 275 275 275 275 275 275 275 274 273 272 271 270 269 269 269 268 268 268 268 268 269 269 269 270 272 274 276 276 277
255 263 273 282 288 291 292 292 291 289 287 285 283 282 282 282 282 283 283 283 283 282 282 282 281 281 280 279 279 278 278 277 277 276 275 275 274 274 274 273 273 274 274 274 273 274 273 273 271 270 269 268 268 267 267 267 268 268 269 269 270 270 271 271 272 274 277 278 278
256 265 274 282 287 289 291 291 290 288 286 285 284 283 283 283 283 284 284 284 284 284 284 284 284 283 283 282 282 281 280 280 279 278 277 276 275 274 274 273 273 273 273 273 272 272 272 271 270 269 267 267 266 266 266 266 267 267 268 269 270 271 271 272 273 274 276 277 277
260 268 275 281 285 288 289 290 289 288 287 286 285 284 284 285 286 286 287 287 287 287 287 288 288 287 287 286 285 285 284 283 282 280 279 278 277 276 275 275 274 274 273 273 272 271 271 270 269 268 267 267 266 265 265 266 267 267 268 269 270 271 272 272 272 273 274 274 274
267 271 275 279 283 287 289 290 290 289 288 287 286 286 286 287 288 289 290 290 290 291 291 291 291 291 290 290 289 288 287 286 285 284 283 282 281 280 279 278 278 277 276 275 274 273 272 271 270 270 269 269 268 267 267 267 267 268 269 269 270 271 272 272 272 272 272 272 271
271 272 275 278 283 286 289 290 290 289 289 288 287 288 289 290 291 292 293 293 294 294 295 295 295 295 294 293 293 292 292 291 291 290 288 287 286 285 284 283 282 281 279 278 277 276 275 275 274 274 274 273 273 272 271 270 270 270 270 270 270 271 271 271 271 271 271 271 270
271 272 275 279 283 287 290 291 291 291 290 290 291 292 293 295 296 296 297 297 297 298 298 299 299 299 298 298 297 297 297 297 297 295 294 293 292 292 291 290 289 288 286 284 284 284 284 284 285 285 284 283 282 281 279 278 276 275 274 273 272 271 271 271 271 271 270 270 270
270 272 276 281 286 290 292 293 293 293 293 295 296 298 299 300 301 302 302 302 302 303 304 304 304 304 303 303 302 302 302 302 301 299 298 298 299 300 300 301 301 299 295 294 295 298 300 302 302 301 299 296 295 294 293 291 289 286 283 280 278 276 274 272 272 271 271 270 270
269 274 280 286 292 295 295 294 295 295 297 300 302 304 305 306 307 307 307 308 308 309 310 310 309 309 308 307 306 306 305 304 302 302 303 306 306 308 311 312 302 295 295 299 306 310 309 307 305 303 302 301 303 305 306 306 304 301 298 293 289 284 281 278 276 274 273 271 271
271 279 287 292 294 295 295 295 296 299 301 304 306 307 309 310 311 311 312 312 313 314 315 314 313 312 311 310 310 309 307 305 301 301 304 308 301 309 318 307 288 289 297 305 309 303 294 293 291 290 292 297 302 307 311 312 310 308 304 301 296 291 287 283 280 277 275 272 271
276 284 289 292 293 293 295 297 301 304 306 307 308 310 311 312 313 314 314 315 315 316 316 315 314 313 313 313 312 310 306 302 290 214 157 160 189 271 326 296 290 294 299 299 285 270 274 287 287 287 290 296 302 306 309 310 309 306 303 300 294 289 285 282 279 276 274 272 270
281 285 288 291 293 296 300 305 309 310 311 311 311 312 312 313 314 314 314 314 315 316 316 316 315 314 313 312 311 305 295 279 224 181 172 181 197 228 253 259 268 275 276 276 279 281 276 270 271 278 287 295 300 305 308 308 307 305 303 299 294 287 281 276 272 269 267 265 265
283 286 289 293 298 303 309 313 315 315 314 313 313 314 314 314 313 313 313 314 315 315 316 316 316 315 314 312 309 300 274 219 196 193 199 211 227 242 249 249 253 264 280 291 294 280 246 228 242 260 274 284 291 299 304 305 303 301 300 298 294 289 283 275 269 264 261 259 257
284 288 293 299 306 313 317 318 317 316 315 314 315 315 315 314 312 312 312 313 313 314 314 316 318 318 316 315 317 315 195 181 192 209 225 235 242 247 250 250 256 273 293 301 288 229 207 212 229 244 253 257 261 278 292 295 296 296 295 295 296 296 293 286 278 272 267 263 258
287 293 300 308 315 319 319 318 316 315 314 314 315 315 314 312 311 311 311 311 311 312 314 319 321 321 320 325 9 90 136 195 215 225 233 238 238 237 237 241 257 276 315 20 76 150 183 205 214 219 217 211 206 225 270 290 297 299 298 296 297 296 294 289 283 275 268 262 255
291 299 308 315 319 319 317 315 314 313 313 314 314 314 312 311 310 309 308 307 308 311 316 324 328 327 331 0 86 110 138 233 238 228 220 218 217 213 207 195 163 85 59 46 46 64 142 180 193 199 200 203 207 220 273 306 309 309 307 303 298 292 286 281 275 269 263 256 249
297 308 315 318 318 316 314 312 312 312 312 313 313 313 312 310 309 307 304 302 305 311 320 330 329 332 342 13 75 100 107 139 205 196 189 187 189 193 190 160 112 77 52 33 21 14 18 178 189 198 206 211 226 287 323 322 316 314 313 309 303 296 288 282 279 276 275 272 267
307 314 316 317 315 312 310 310 310 311 311 312 312 312 312 311 309 303 298 296 300 310 323 331 332 341 354 13 52 95 127 160 180 183 184 183 178 183 184 157 98 63 37 14 357 342 327 297 261 253 260 268 297 318 325 323 318 313 310 308 306 302 298 293 290 289 289 289 288
311 313 313 312 310 307 306 307 308 308 309 311 313 313 313 312 306 296 288 287 293 299 308 327 352 3 10 15 71 162 179 186 186 186 188 191 191 190 185 164 97 54 32 10 348 329 315 300 288 285 289 294 303 313 319 322 319 316 312 309 307 305 301 299 296 295 294 294 294
307 308 308 308 305 303 303 304 305 307 310 313 315 316 316 311 299 285 275 274 273 263 247 197 48 36 19 309 213 202 199 203 204 202 199 198 194 191 186 176 120 59 36 18 359 338 319 304 295 293 296 301 308 316 323 327 328 326 323 318 314 309 305 302 299 297 295 293 292
302 303 304 304 302 301 300 301 305 309 313 315 319 320 317 307 290 272 261 256 251 240 211 164 143 156 220 236 231 219 214 220 228 225 214 201 190 183 182 182 157 75 44 28 13 357 340 321 308 306 311 317 324 332 337 339 339 337 333 327 319 312 305 301 298 295 292 290 288
297 299 300 301 300 299 299 302 307 312 315 319 323 323 317 302 282 268 259 252 247 233 198 171 178 197 218 231 253 250 240 241 247 242 228 207 192 183 186 195 196 114 48 34 22 10 359 345 331 324 327 332 338 343 345 343 340 335 330 323 316 307 301 295 292 289 287 285 282
294 296 298 299 299 298 300 303 309 313 318 322 326 329 321 296 280 274 269 262 251 228 203 192 202 212 222 231 257 274 275 263 263 266 269 274 291 315 315 296 270 304 36 34 25 16 7 356 346 336 331 330 334 337 339 337 333 328 322 315 307 299 293 288 284 282 281 279 277
293 295 297 297 298 298 301 306 311 316 322 327 331 338 340 283 260 261 262 263 258 241 224 219 222 227 233 245 261 277 285 280 279 284 294 308 322 330 328 320 317 332 10 28 28 22 13 1 346 330 319 316 319 324 327 328 324 319 312 303 294 287 282 279 277 276 276 275 273
292 295 296 298 299 301 305 310 315 323 330 334 340 353 33 134 188 213 230 249 260 258 247 240 240 242 249 260 267 274 280 284 289 294 301 311 322 329 330 328 331 339 351 7 21 22 16 4 349 333 320 315 315 318 320 319 314 306 297 286 277 272 269 268 268 268 268 269 269
292 295 298 301 306 309 312 315 323 332 339 343 351 14 57 111 152 186 219 250 267 275 268 248 240 242 255 270 275 274 278 288 294 297 300 306 315 324 330 332 336 338 337 340 356 9 10 3 351 338 327 320 317 317 316 312 304 296 286 277 269 264 262 261 263 265 268 271 272
293 296 302 308 313 316 318 322 333 345 353 353 8 33 58 82 109 142 188 249 277 299 321 257 224 233 253 268 273 276 282 292 298 299 297 299 309 319 329 335 339 337 333 330 332 346 359 0 349 335 325 320 318 317 315 309 300 292 285 278 273 269 267 267 269 272 275 278 280
295 301 307 315 320 322 323 330 346 2 15 15 25 42 56 59 61 105 154 196 242 292 337 1 261 263 272 279 281 283 289 299 308 308 307 305 310 319 330 337 338 334 328 324 319 326 344 355 341 330 323 319 318 317 315 309 301 294 287 282 278 275 273 272 273 276 279 282 284
300 307 314 320 324 326 330 341 1 23 39 32 27 49 65 63 55 110 166 184 203 240 348 13 311 294 296 299 305 306 305 306 308 312 314 314 315 322 330 334 329 325 323 321 316 319 338 351 338 333 330 323 321 319 317 312 306 299 292 287 282 279 276 275 275 277 279 282 284
300 308 315 322 326 330 336 349 16 47 56 25 11 54 80 77 68 134 180 186 190 182 131 83 330 312 310 313 318 320 318 311 304 303 307 311 313 320 327 328 323 320 321 320 316 317 337 357 350 343 337 330 325 323 321 318 313 307 301 295 289 285 281 278 277 277 279 281 283
297 306 315 323 328 330 333 345 16 62 73 27 342 30 96 100 86 139 181 184 171 153 136 107 328 315 313 314 317 319 317 312 305 302 304 308 315 323 328 326 323 322 321 319 316 316 331 0 357 348 342 337 330 327 325 324 321 317 312 307 302 296 290 286 283 282 283 284 286
301 311 320 325 325 318 320 333 1 63 102 118 298 292 167 151 112 101 115 101 90 81 68 37 327 308 306 308 308 309 308 306 303 303 306 311 319 325 326 324 322 320 320 320 319 318 326 352 0 358 352 346 336 331 330 331 331 329 327 324 321 317 310 304 300 299 298 299 299